Terug naar catalogus

THOR ABLESTAR DEB

ActiefLEO
NORAD 234·DEBRIS·🇺🇸 United States

Gelanceerd Jun 29, 1961 vanaf Cape Canaveral Space Force Station

Loading…

Volgende Passages (komende 24 uur)

TLE

VersSource: Space-Track

Epoch: Sep 9, 2026, 03:54 UTC

1 00234U 61015BS  26252.16308423  .00000070  00000-0  91929-4 0  9997
2 00234  66.8769 312.2047 0063360  65.4078 295.3592 14.04146351323226

Volg THOR ABLESTAR DEB in realtime met AllMySat

Download on the App Store